Theta_e
286 286 286 287 286 286 286 286 285 284 285 284 280 280 284 283 277 276 280 282 280 283 286 288 288 290 290 290 292 292 292 292 292 292 293 293 293 294 294 295 295 296 296 298 302 303 305 307 310 311 312 311 312 313 313 313 313 314 313 312 310 309 309 309 308 308 308 307 307 307 307 306 305 304 303 302 302 301 300 300 301 300 299 299 298 298 298
285 285 286 287 286 285 285 285 285 285 284 282 283 283 284 283 281 282 282 281 280 284 286 288 289 292 292 291 292 291 291 290 292 293 293 293 295 295 296 296 296 297 298 299 300 302 303 304 307 309 310 308 309 309 310 312 313 313 313 311 309 309 308 308 308 308 308 307 307 306 305 304 303 302 302 301 300 299 299 299 298 299 298 298 298 298 297
282 285 287 286 285 285 283 285 285 284 284 284 284 283 281 283 281 282 280 278 281 285 289 289 291 290 290 290 289 289 291 294 293 293 293 294 294 295 297 297 298 298 298 300 300 300 302 302 303 305 306 306 308 309 311 312 313 313 313 311 309 308 308 308 308 308 307 306 305 305 303 302 301 301 301 301 299 299 299 298 298 297 298 297 296 296 296
276 284 284 284 285 284 282 282 282 281 281 278 279 280 281 279 278 279 278 278 280 285 288 288 290 289 289 289 290 290 292 293 294 293 294 295 295 296 297 297 298 298 299 298 298 299 302 304 304 303 304 307 308 309 310 312 313 313 312 310 308 307 308 307 307 306 305 304 303 303 302 301 301 301 300 299 298 297 297 297 297 297 297 296 295 295 296
276 283 285 283 281 278 277 276 277 282 282 283 284 284 285 285 283 280 279 280 283 286 288 287 287 288 289 290 292 292 293 294 294 294 294 295 296 296 296 297 297 297 298 299 299 301 304 304 304 305 306 306 307 309 309 311 313 312 311 310 308 307 307 306 305 304 304 303 302 302 301 301 301 300 299 297 296 296 296 296 296 296 295 295 295 294 295
275 281 281 281 276 271 272 280 286 287 282 282 280 280 281 284 285 281 283 284 285 286 287 288 287 289 290 292 294 295 294 292 292 294 294 294 295 295 297 298 298 299 299 301 302 302 302 303 305 306 308 307 309 310 310 310 310 311 310 311 306 305 305 305 304 304 303 302 301 300 300 300 299 298 296 295 294 295 296 296 295 294 294 294 293 293 293
275 276 277 273 269 273 280 287 289 289 288 288 286 286 287 288 288 288 287 287 287 289 290 291 291 291 293 294 294 295 295 295 293 293 293 295 296 297 297 298 298 299 299 299 300 301 302 303 303 304 306 307 309 310 309 309 310 309 309 308 307 305 304 304 304 303 302 301 299 299 299 298 297 295 295 293 294 294 295 293 292 293 293 292 292 294 292
278 275 273 267 271 279 285 286 288 290 289 288 285 283 285 289 288 289 286 287 289 290 290 291 292 292 293 294 294 294 295 296 294 294 294 295 296 297 298 298 300 301 302 302 301 301 303 305 306 306 307 307 308 308 309 309 309 308 308 307 306 305 303 303 303 302 301 299 299 298 297 296 295 294 294 294 294 294 293 291 292 291 291 292 292 291 292
274 273 272 274 281 281 282 281 282 285 281 282 281 277 279 288 288 288 287 288 289 290 290 291 291 292 292 290 291 294 294 296 296 296 296 297 297 297 299 301 302 303 304 305 305 304 305 306 307 307 307 307 307 307 307 308 307 306 306 305 305 304 303 302 302 301 300 299 298 297 296 295 294 294 293 294 293 292 290 290 290 290 290 291 291 290 290
279 274 272 272 272 271 275 285 291 293 292 291 287 282 279 288 289 289 288 287 287 288 288 289 290 290 287 284 287 292 295 296 296 297 298 298 298 300 301 302 303 303 304 305 306 306 306 306 306 306 306 305 305 306 306 306 305 304 305 304 305 304 302 301 301 300 300 299 297 297 295 295 294 293 293 292 292 292 291 289 289 290 291 290 290 290 290
277 276 273 271 269 273 278 283 290 291 291 291 289 279 276 284 288 288 288 287 288 288 288 288 288 286 281 282 286 292 294 295 296 296 297 297 298 300 301 301 301 302 303 304 305 306 305 305 306 306 306 305 304 304 305 304 304 303 303 303 304 303 302 301 301 300 299 298 296 295 294 293 293 292 292 292 291 291 290 289 289 289 291 289 289 289 290
277 275 274 273 275 273 282 288 289 290 289 290 279 270 270 283 286 289 289 288 288 288 288 288 286 283 281 283 287 292 294 296 296 296 296 297 298 300 301 302 302 302 303 304 305 304 303 304 306 307 305 304 303 304 303 303 303 302 302 302 302 301 301 300 299 299 298 297 295 295 294 293 292 293 292 291 290 290 289 289 288 288 289 288 288 289 290
279 279 276 276 277 283 287 288 290 290 293 284 272 269 274 285 287 288 289 288 288 289 288 288 283 286 288 290 292 294 295 295 296 297 297 298 299 299 300 301 301 302 302 303 304 305 306 306 306 304 306 304 304 303 303 303 301 301 299 298 299 299 299 298 298 298 297 297 296 295 294 293 293 293 292 291 290 289 289 288 288 288 287 288 288 289 290
274 275 274 275 276 284 288 290 291 292 285 272 270 279 287 287 287 288 289 288 288 289 289 288 288 290 292 294 294 294 295 295 295 296 296 298 298 299 300 301 301 299 300 302 304 306 308 307 307 306 306 305 303 303 303 301 299 299 299 298 298 298 298 297 297 297 296 296 297 297 294 294 293 291 291 291 291 289 289 288 287 287 286 287 287 288 288
277 276 272 272 268 279 289 288 286 287 278 278 284 286 287 291 290 290 289 290 290 291 289 290 291 291 292 293 293 294 295 294 295 295 296 296 297 297 299 300 300 298 298 299 301 305 306 307 307 307 305 303 302 302 300 299 299 299 298 298 298 298 297 297 297 296 296 296 296 298 295 294 292 290 291 290 290 289 288 287 287 286 285 286 286 287 287
274 274 272 273 280 283 291 287 280 280 284 287 289 288 285 289 290 289 289 289 291 290 290 290 290 291 291 292 293 293 294 294 294 295 296 296 297 297 300 302 303 302 302 303 303 303 305 305 306 306 306 303 302 300 299 298 299 298 298 298 298 297 296 296 296 296 296 295 296 295 293 292 292 289 289 289 290 290 287 286 285 285 285 287 285 285 287
277 275 277 282 285 286 288 289 288 288 290 292 292 289 288 287 288 292 289 290 290 291 291 291 290 290 291 292 293 292 292 293 294 294 295 295 296 296 298 300 303 303 302 302 303 304 305 305 305 306 305 302 298 298 298 299 297 297 297 297 297 296 295 295 295 295 293 293 292 291 291 291 290 289 288 288 287 287 286 285 285 284 284 284 286 286 286
284 284 284 286 284 286 287 289 289 288 289 293 292 292 289 290 289 290 290 290 291 291 291 291 291 291 292 292 292 291 292 293 294 295 296 296 296 297 298 300 301 301 302 302 303 303 304 306 305 304 304 301 297 297 298 298 298 298 297 297 296 296 295 293 293 294 292 291 291 291 292 291 289 289 288 287 286 286 286 285 285 285 284 284 285 285 285
278 273 283 283 284 286 286 287 288 289 290 290 291 291 291 292 292 292 292 291 291 291 291 291 291 291 292 291 291 291 292 293 294 296 296 295 297 298 298 300 300 301 302 301 302 302 301 303 302 303 302 300 298 298 298 298 298 298 297 296 294 294 293 292 292 291 290 289 290 290 291 290 290 289 288 286 286 286 284 283 283 284 283 284 284 283 284
276 276 282 284 285 286 287 287 286 286 288 290 291 292 293 293 293 293 292 292 292 291 291 292 292 292 291 290 290 291 292 294 296 297 297 297 298 299 300 300 300 301 302 302 301 302 301 300 302 301 300 299 298 298 299 299 298 297 296 295 294 293 292 292 291 290 290 290 289 289 289 289 287 287 288 287 284 285 283 282 282 282 281 282 282 283 284
281 283 284 284 285 286 286 288 289 289 289 290 291 292 293 292 292 292 293 293 292 292 292 293 292 290 289 290 290 292 293 295 296 297 298 299 300 300 299 300 300 300 300 301 302 301 301 301 300 299 298 298 299 298 298 298 297 295 294 293 294 293 292 292 291 291 291 290 290 289 290 289 288 288 289 286 286 283 282 283 282 282 280 282 284 283 284
274 275 279 283 278 278 283 286 288 288 289 291 291 291 291 291 290 291 291 292 293 293 293 292 290 289 288 290 291 293 294 295 296 297 298 299 300 301 301 301 302 302 302 301 302 302 301 300 300 299 298 298 298 299 299 297 296 294 293 293 292 292 292 292 292 291 292 290 291 290 289 288 288 288 288 289 287 286 284 289 289 289 288 283 284 284 285
276 282 284 285 284 284 285 287 288 289 290 290 291 290 290 290 292 293 292 291 291 291 292 292 292 290 290 291 292 293 294 296 297 298 299 300 300 300 301 300 300 300 301 300 300 300 301 299 298 298 297 298 298 299 299 297 296 295 294 292 292 292 292 292 291 292 291 291 291 291 289 288 287 286 286 287 288 288 288 289 288 289 288 288 288 288 287
284 286 285 286 285 284 286 288 289 289 290 290 290 291 291 292 291 293 293 293 291 291 291 292 292 291 291 291 292 293 295 296 297 298 299 300 301 300 301 301 300 299 298 300 299 299 301 298 298 298 297 298 298 299 298 297 297 295 295 294 293 293 292 290 290 289 291 291 291 290 288 288 288 286 283 284 285 288 289 288 288 288 288 288 288 288 288
282 286 286 287 287 288 289 289 290 290 291 292 290 290 290 291 293 294 293 292 292 292 290 290 291 291 291 291 292 293 294 295 297 297 297 296 296 297 298 299 300 298 299 300 300 301 301 298 297 297 297 298 298 298 297 298 298 296 296 294 293 292 291 291 290 291 290 290 290 290 289 288 289 286 284 283 283 282 283 288 288 288 288 288 288 288 288
287 288 290 290 289 289 289 290 290 290 290 291 291 291 293 295 294 294 294 293 292 292 291 290 291 291 292 291 292 294 295 296 296 294 296 296 298 298 298 300 301 300 300 300 301 301 301 299 297 297 296 297 297 298 298 297 297 295 294 293 292 292 291 291 292 292 292 291 290 289 288 288 286 286 285 285 285 284 283 281 282 285 286 287 288 287 288
288 290 289 286 286 287 288 287 286 290 291 292 292 292 293 292 293 293 294 294 293 293 291 291 290 291 291 292 293 294 294 295 296 297 298 297 296 297 299 300 300 299 298 300 300 300 297 297 296 296 296 297 298 298 298 298 296 294 293 292 291 290 289 289 292 292 291 291 291 291 289 289 286 286 286 286 284 284 283 282 284 284 284 284 286 287 286
288 289 289 283 283 285 287 290 291 292 292 291 291 292 293 293 292 293 292 292 292 293 292 291 291 291 291 293 294 295 296 296 296 296 295 297 297 298 298 298 299 297 296 296 297 297 296 297 296 296 296 297 298 299 299 297 295 294 293 292 292 289 289 289 291 290 291 292 292 290 289 288 288 286 285 285 285 284 284 283 284 284 283 282 283 286 287
287 288 289 289 289 290 291 291 291 291 290 291 292 292 292 291 291 291 291 292 292 291 289 291 291 292 293 294 295 295 294 295 295 293 293 296 299 297 298 298 298 297 296 296 296 297 297 298 297 296 296 297 298 298 298 297 295 293 293 292 291 291 291 290 291 292 293 292 291 290 288 287 286 285 285 285 284 284 283 283 283 283 283 283 283 284 286
288 290 289 289 290 290 290 289 289 290 290 291 291 291 291 290 290 291 291 293 293 291 291 291 292 293 294 294 294 294 294 295 296 296 297 297 297 297 297 298 297 297 297 296 295 295 296 296 296 296 297 298 298 297 297 296 294 293 292 293 293 291 290 291 290 290 290 290 290 288 287 286 286 285 285 284 284 284 283 283 283 282 283 283 285 282 282
288 291 291 291 291 290 289 289 290 290 290 289 289 289 290 290 290 290 292 292 293 292 291 292 291 292 293 294 295 296 296 297 296 296 296 296 296 296 296 296 295 293 294 294 296 297 296 297 297 297 298 299 297 296 295 294 293 293 291 289 287 287 287 287 288 289 289 288 289 288 287 286 285 285 286 284 284 283 283 283 282 282 282 282 282 282 282
289 288 290 288 287 288 288 288 288 288 288 289 288 288 288 289 288 289 290 292 291 289 290 291 292 293 294 296 296 296 296 296 296 295 295 296 295 295 295 294 293 292 293 294 295 295 296 296 296 296 297 296 295 295 295 293 292 292 291 289 288 287 287 287 286 288 287 288 289 288 287 286 285 284 285 284 284 284 283 282 282 281 281 281 282 284 282
288 286 285 286 286 286 286 286 286 287 288 287 286 288 290 291 291 290 290 291 291 291 291 292 293 294 295 295 295 296 296 295 296 296 295 294 294 293 293 293 293 292 292 292 292 293 294 295 296 297 296 295 294 293 293 292 292 292 293 293 293 288 287 289 288 289 290 289 288 288 287 286 285 285 286 285 284 284 283 283 282 283 284 283 282 283 284
287 285 285 285 285 285 285 286 288 288 289 290 291 292 292 292 290 293 292 291 292 292 292 293 294 295 296 296 295 295 294 293 291 291 292 292 292 292 292 292 292 291 292 292 292 292 292 293 295 297 297 296 295 293 291 291 291 292 293 293 292 292 291 289 287 290 289 289 290 288 288 287 286 286 286 285 285 284 284 284 284 283 284 283 283 283 285
289 288 288 288 288 288 288 288 288 288 288 288 290 291 292 292 294 294 292 293 292 292 294 295 295 295 295 295 295 293 292 290 290 290 291 291 291 291 291 291 291 290 290 290 291 291 292 291 292 293 294 294 294 293 290 289 289 290 293 293 293 292 291 291 291 288 287 290 289 288 287 287 286 287 286 285 285 285 284 285 285 285 284 284 284 283 284
289 288 287 287 288 288 288 287 288 288 289 289 290 290 290 290 293 293 293 293 295 295 294 293 294 294 294 293 291 291 290 290 290 290 290 290 290 290 290 289 288 287 287 288 289 290 291 290 287 288 291 292 292 293 291 287 288 289 290 291 291 291 291 289 289 289 289 289 289 287 285 287 288 286 286 286 286 287 286 287 287 285 284 284 284 283 284
288 287 287 287 287 287 287 286 287 287 289 289 289 288 288 291 291 291 292 292 291 291 292 292 292 291 291 291 291 291 290 290 290 289 289 289 289 289 288 288 287 286 286 285 287 289 289 289 287 288 290 291 291 291 290 287 287 288 292 294 293 291 290 289 290 290 289 288 287 287 286 285 287 288 288 288 288 289 288 287 286 286 284 284 284 284 284
288 288 287 287 287 287 286 287 287 287 287 289 289 289 289 290 290 291 290 290 290 291 291 291 291 291 291 291 290 290 290 290 289 289 289 288 288 287 287 286 286 286 285 285 287 287 287 287 287 288 289 289 290 290 289 287 287 291 293 292 291 291 291 291 290 290 290 290 289 289 288 287 287 287 288 288 288 288 288 288 287 285 284 284 284 284 285
288 288 288 288 287 287 286 287 287 286 286 286 288 289 290 290 290 291 290 290 291 291 291 292 291 291 290 290 289 289 289 289 289 288 288 287 287 286 285 286 286 287 286 287 287 286 286 286 287 287 287 288 289 289 288 287 288 292 292 292 291 290 290 290 290 290 289 289 289 288 288 287 287 287 287 287 287 287 288 288 289 288 286 285 284 284 285
287 287 287 287 286 286 286 286 286 285 286 286 287 288 289 289 289 290 290 290 290 290 291 291 290 288 288 288 287 287 287 288 288 287 287 286 286 285 285 286 287 287 287 286 286 286 286 286 286 286 286 286 288 288 288 289 289 291 291 291 290 290 289 289 290 289 289 290 289 287 287 286 286 286 287 287 287 287 286 287 287 288 289 288 288 286 285
287 287 287 287 286 286 286 286 285 286 286 286 286 287 288 288 288 288 288 288 289 290 290 290 289 288 288 287 286 286 285 285 285 285 285 285 284 284 283 283 286 287 286 286 285 285 285 285 285 285 285 286 287 287 289 289 290 291 290 289 289 289 289 288 288 288 288 288 288 287 286 285 285 286 286 286 287 287 287 287 286 287 288 288 288 288 288
288 288 287 287 286 286 286 286 286 286 286 286 286 287 287 288 287 287 288 288 289 289 289 289 288 289 289 289 288 287 286 285 285 284 284 283 282 283 282 283 286 286 285 285 285 285 285 285 285 285 285 285 287 287 287 289 290 290 289 289 288 288 288 287 287 287 287 287 287 287 286 285 285 285 285 286 286 286 286 286 286 286 287 287 287 287 287
287 287 287 287 286 286 286 286 285 285 285 286 286 286 287 287 287 287 287 287 287 288 288 288 289 289 289 289 288 288 287 287 286 285 284 284 284 284 283 283 285 285 285 285 284 284 284 284 284 284 285 286 287 286 287 288 288 288 288 287 287 287 286 286 286 286 286 286 286 285 285 284 284 284 284 284 284 284 284 285 285 286 286 286 286 286 286
287 287 287 287 287 287 287 286 286 286 285 285 287 287 287 287 287 287 286 286 286 286 287 287 287 288 288 288 287 287 287 287 286 286 284 283 283 283 284 284 283 284 285 284 284 283 283 283 284 285 285 286 286 286 286 287 287 286 286 286 285 285 285 285 285 285 285 285 285 284 284 284 284 283 283 283 283 283 283 284 284 284 285 285 285 285 285
287 287 286 286 286 286 286 286 286 285 286 287 287 287 287 287 287 287 287 286 286 287 286 287 286 286 286 287 287 287 287 287 286 285 283 281 281 281 284 284 284 284 284 284 283 283 283 283 284 285 285 285 285 285 285 285 285 284 284 284 284 284 284 284 284 284 284 284 284 284 284 283 283 284 284 284 284 284 284 284 284 284 284 284 284 284 284
286 287 287 286 286 286 286 286 287 287 287 286 286 286 287 287 287 287 287 287 286 286 286 286 286 286 285 285 285 286 286 286 285 285 284 283 281 282 284 284 284 284 284 283 282 282 283 284 284 284 285 285 285 284 283 284 283 283 283 283 283 283 282 282 283 283 283 283 283 283 283 284 284 284 284 284 284 284 284 284 284 283 283 283 284 284 284
287 286 286 286 286 287 287 287 287 286 285 285 284 284 285 286 286 286 287 287 287 286 286 286 285 285 285 284 283 282 282 283 284 285 285 284 284 284 284 284 284 284 283 282 282 282 283 283 284 284 284 284 284 283 282 282 282 283 283 283 283 282 282 282 282 282 282 283 283 283 284 284 284 284 284 284 284 283 283 283 283 283 283 283 283 283 283
286 285 285 285 286 286 287 286 285 284 284 284 284 285 284 285 286 286 286 286 286 286 286 285 285 286 286 285 285 285 284 283 282 282 284 284 284 284 283 282 283 284 284 283 283 283 283 283 284 284 284 283 282 282 282 281 282 282 283 283 283 282 282 282 282 282 282 283 283 283 283 283 283 283 283 283 283 283 283 283 282 282 282 282 281 281 281
287 287 286 285 285 285 284 283 283 283 283 284 283 282 283 283 283 283 283 284 285 284 284 284 284 285 285 285 285 284 285 285 283 281 283 283 283 282 282 283 284 284 284 283 282 282 283 283 283 284 284 283 281 281 281 281 281 282 282 282 282 282 282 282 282 282 282 281 282 282 282 282 282 282 282 282 282 282 282 282 282 281 281 281 280 280 281
286 286 284 283 283 283 283 282 282 282 282 283 282 282 282 281 280 279 280 281 282 283 282 281 281 282 282 282 283 283 284 284 284 284 283 283 283 282 282 282 283 284 283 282 282 282 283 283 283 283 283 282 282 282 281 281 281 281 281 281 281 281 281 282 282 282 281 281 280 280 281 281 281 281 281 281 281 281 281 281 281 281 280 280 279 279 279
284 283 283 283 283 284 284 283 282 282 282 281 282 281 281 280 279 279 279 279 279 279 278 280 280 280 281 281 282 283 283 283 283 283 282 282 282 283 283 282 282 283 282 282 281 281 281 281 281 282 281 282 282 281 281 281 281 281 281 280 280 280 280 280 281 280 280 280 280 279 279 279 279 279 279 279 279 280 280 279 279 279 279 278 278 278 277
286 284 284 284 284 283 283 283 283 282 281 280 279 280 279 279 278 278 278 281 277 277 277 277 279 279 280 280 281 281 282 282 281 280 282 281 281 280 281 282 281 281 281 281 281 282 281 281 281 281 281 281 281 281 281 280 280 280 280 280 279 279 279 279 279 279 279 279 278 278 278 278 278 278 278 278 278 278 278 278 278 278 278 278 277 277 276
Wind_Speed
11 8 8 7 7 9 11 13 13 13 7 4 4 5 7 6 4 9 7 4 3 7 12 10 2 1 1 3 2 3 4 4 7 8 11 12 10 10 8 8 6 5 6 7 11 10 2 6 8 2 3 3 2 3 5 6 10 11 11 12 12 12 11 11 10 9 7 7 6 7 7 6 5 5 5 5 4 4 3 2 2 2 2 2 2 2 1
6 5 6 7 10 7 9 11 12 7 3 3 4 6 5 4 6 8 10 7 9 9 10 7 3 0 0 2 2 4 6 4 3 3 4 4 6 7 7 7 7 8 7 5 5 7 7 2 8 11 7 4 4 1 3 6 11 11 13 13 13 12 12 10 9 8 8 7 7 6 6 6 6 5 5 4 4 4 4 3 3 4 4 4 2 1 0
6 5 8 6 7 7 11 14 9 6 7 11 10 6 6 7 5 5 4 6 11 5 1 4 6 4 1 1 4 5 1 2 3 4 4 6 7 8 9 8 9 10 9 7 6 5 4 2 4 3 4 3 1 3 5 3 5 5 13 13 12 12 11 10 10 9 8 7 7 7 6 6 5 5 5 5 4 4 4 4 4 4 4 3 1 1 1
4 1 5 10 6 8 13 14 6 4 5 6 3 5 5 3 6 6 6 8 11 11 7 5 7 6 3 2 3 4 5 5 5 6 6 8 8 9 11 12 11 12 13 12 6 5 3 1 5 4 4 4 4 3 4 6 4 7 2 7 9 10 10 10 10 10 8 8 7 7 6 6 5 6 5 5 4 4 3 2 2 2 2 2 1 1 1
5 1 2 7 6 8 11 8 4 8 8 8 8 6 5 7 6 6 7 9 8 9 5 4 4 6 6 4 3 3 4 4 4 5 8 7 10 10 9 9 9 9 10 13 12 3 4 4 3 8 8 7 6 5 7 8 8 5 1 3 5 8 9 10 10 9 8 8 7 7 6 6 6 6 5 4 4 3 2 3 2 2 1 1 1 1 1
4 4 3 4 7 10 8 1 2 1 3 3 4 6 6 6 3 4 4 5 4 5 7 7 5 5 4 3 2 1 1 2 4 5 6 7 5 5 5 6 8 9 9 9 11 9 6 6 7 6 10 11 10 8 9 8 9 10 8 3 4 6 8 9 8 8 8 8 7 6 6 6 6 5 5 5 4 3 2 1 1 2 0 0 1 1 2
5 1 1 3 7 14 1 1 4 4 5 4 3 4 3 3 5 6 10 7 4 3 3 3 3 4 5 4 5 4 4 4 5 4 4 4 5 6 6 8 9 10 12 12 12 12 9 7 6 5 7 8 10 12 12 11 11 11 12 12 8 5 6 7 8 8 7 7 6 5 5 5 5 4 4 3 3 3 3 2 2 0 0 1 2 2 3
2 3 2 4 14 6 5 3 4 5 7 2 3 6 3 4 4 2 3 3 6 6 5 5 4 5 7 7 4 3 4 4 2 5 6 5 7 8 7 7 9 11 12 13 15 15 12 8 7 6 11 11 13 14 14 14 11 11 10 12 9 8 8 8 9 8 8 6 6 5 5 4 4 4 3 4 4 0 2 3 2 2 2 1 2 3 4
8 4 4 9 7 13 9 2 1 0 1 1 2 2 4 4 4 5 4 5 6 6 5 7 8 9 9 8 9 3 3 6 6 5 5 7 6 5 6 7 11 12 12 13 14 12 9 7 7 7 10 13 15 15 15 13 13 14 13 12 10 8 8 9 9 8 8 7 5 5 4 4 4 4 3 1 3 3 4 3 3 3 1 1 2 3 4
8 7 4 3 3 10 2 2 1 1 5 6 5 3 4 4 5 5 4 3 3 4 5 6 6 6 9 10 10 5 5 8 11 13 12 12 10 8 10 12 12 11 11 13 14 14 14 11 10 7 6 6 8 11 13 15 16 15 14 14 13 11 10 9 9 8 7 6 5 4 4 3 2 3 3 3 2 3 5 4 3 1 1 1 2 3 4
4 6 8 5 6 7 2 5 4 3 3 6 3 3 4 1 2 3 2 3 2 3 4 5 5 7 7 10 10 8 7 10 10 10 11 9 6 5 6 9 12 10 11 13 15 14 13 13 11 9 5 1 3 6 10 14 16 15 14 12 13 13 11 10 9 8 7 6 5 4 4 4 4 3 3 3 3 5 5 3 2 1 0 1 2 3 4
5 4 4 7 1 3 2 5 1 1 1 2 5 3 5 1 3 1 1 1 4 4 5 2 3 3 7 9 11 8 10 11 10 8 10 7 6 8 9 9 10 10 10 10 10 10 8 7 8 10 6 9 7 7 9 11 13 14 13 11 10 9 10 9 8 7 6 6 5 5 5 5 4 3 2 3 5 4 4 3 2 1 1 3 4 4 4
9 6 5 4 3 2 2 3 2 3 1 3 1 5 3 2 4 4 2 2 2 3 4 2 3 5 7 9 11 11 10 11 11 9 6 4 5 8 10 12 11 9 7 7 8 10 9 3 6 1 5 8 6 5 8 10 12 10 11 13 13 13 11 9 8 7 5 5 7 5 4 4 3 2 2 3 4 4 4 3 3 2 4 4 4 4 5
5 7 6 7 2 0 1 4 1 2 2 1 2 3 1 1 3 3 3 3 4 2 2 3 6 7 7 9 9 9 8 10 11 9 8 6 6 6 7 11 10 4 5 7 9 8 8 6 5 4 3 9 11 8 9 8 10 11 13 14 12 12 10 8 7 8 7 6 7 6 4 2 2 3 3 4 5 5 4 4 3 4 4 4 4 5 6
1 1 1 1 1 1 6 1 1 1 2 4 2 1 1 1 0 0 2 1 2 1 4 4 5 6 7 7 8 9 10 9 9 10 10 9 8 9 10 9 5 4 3 7 9 9 6 6 3 5 7 6 9 10 11 11 10 12 14 13 11 10 9 9 8 7 6 6 5 3 3 4 4 4 4 5 4 4 4 4 4 4 4 4 4 6 6
0 3 1 1 3 3 3 1 1 2 6 5 3 0 4 1 2 2 2 2 4 4 4 6 6 7 7 7 7 8 8 7 8 10 10 8 6 6 6 6 6 5 5 6 7 8 10 10 6 3 2 5 7 11 12 9 11 11 11 11 11 10 9 8 6 6 4 4 4 4 4 3 4 4 4 4 6 6 5 4 3 3 4 4 4 6 8
1 1 3 5 9 4 1 3 3 3 5 4 4 3 2 3 2 1 2 4 4 4 5 6 6 8 6 7 6 7 7 8 10 12 12 7 6 5 5 8 6 5 5 8 9 10 7 7 8 3 6 5 10 12 9 11 10 11 11 10 9 8 7 6 6 5 5 6 5 4 3 2 1 3 2 4 4 3 3 3 2 2 3 3 6 7 8
5 5 7 3 3 5 7 7 6 6 9 3 4 4 4 2 3 2 3 4 4 4 4 5 6 7 7 7 7 6 6 9 11 12 9 5 5 5 5 6 6 7 9 8 8 11 10 7 6 3 8 11 14 11 10 11 11 11 10 10 9 7 8 6 7 7 7 5 3 1 1 1 2 2 2 3 3 5 4 2 0 1 3 5 6 6 7
6 4 4 6 8 6 8 8 5 6 4 3 3 3 5 6 5 6 5 6 6 5 4 6 9 9 8 7 5 4 5 8 11 11 8 6 5 5 7 8 8 8 6 8 10 10 14 4 8 11 10 10 12 10 11 10 11 10 10 10 10 9 7 6 6 6 6 4 2 1 3 2 1 2 4 4 4 3 3 2 1 1 3 4 6 6 8
4 7 7 9 5 6 6 3 4 6 6 5 4 4 6 7 5 5 5 6 7 5 6 8 8 9 6 4 4 4 6 8 10 11 8 6 6 7 6 8 8 9 8 6 10 12 13 4 4 11 12 11 12 11 10 10 10 10 10 10 9 8 8 6 5 4 5 5 4 3 3 3 4 2 1 2 3 5 4 4 2 1 2 3 5 7 8
8 9 9 4 10 12 6 5 3 5 5 5 6 5 5 3 3 4 7 7 9 9 10 9 8 5 4 2 3 4 7 9 9 9 8 7 6 5 7 8 10 9 11 8 11 15 10 3 11 13 10 10 12 12 10 10 11 10 8 9 9 8 8 6 4 1 3 4 5 3 4 4 3 3 0 2 5 3 3 5 3 1 1 3 4 6 6
5 4 5 4 7 9 9 5 6 6 6 7 6 4 3 3 5 4 4 8 11 9 7 6 2 3 3 2 3 6 8 8 9 9 8 8 6 6 6 9 12 11 11 11 4 2 4 4 12 11 8 9 9 10 10 10 11 10 9 9 8 7 7 6 5 3 2 3 4 5 6 4 1 2 3 5 8 7 4 5 6 7 6 2 5 4 7
7 5 6 6 7 8 8 6 5 6 5 6 7 6 6 7 7 5 4 8 12 9 8 4 1 2 1 2 3 6 7 8 8 8 8 7 5 7 8 10 12 10 11 2 11 2 6 4 14 13 9 9 9 10 10 9 10 10 8 7 7 6 6 6 6 4 2 2 7 6 4 3 2 3 1 2 3 6 9 8 7 5 5 8 6 10 6
10 9 9 6 5 7 8 7 7 7 7 7 6 5 6 8 7 5 8 11 10 7 6 1 1 1 1 2 3 7 8 8 7 8 8 7 6 6 9 11 13 14 5 7 10 12 7 7 15 11 10 9 10 10 9 9 8 9 7 6 6 5 4 4 3 3 0 3 7 5 2 2 1 2 3 1 1 5 6 8 8 8 4 4 7 9 11
9 8 5 4 3 5 6 6 6 6 8 9 5 3 4 4 5 4 6 7 5 7 5 3 1 2 1 3 4 6 7 8 8 7 10 11 10 9 10 13 10 4 1 3 7 3 3 5 11 10 11 10 10 9 7 7 8 9 8 8 7 5 4 4 2 1 2 6 6 4 2 1 1 5 3 3 1 3 4 8 9 9 4 3 6 8 11
7 4 4 4 5 6 6 5 5 6 7 5 3 4 6 7 7 5 7 7 6 5 4 2 1 1 1 3 4 5 5 7 10 12 9 8 7 7 8 2 2 0 3 4 8 5 3 4 10 10 10 9 9 8 7 8 10 11 9 7 6 6 5 4 6 5 5 6 5 3 1 1 4 4 3 1 0 1 4 6 3 6 6 6 6 8 10
4 4 4 5 6 6 3 2 6 6 10 9 7 8 10 9 8 5 5 5 4 2 4 3 2 1 2 4 3 3 5 10 11 8 4 4 7 7 5 3 2 2 3 9 7 5 3 8 10 11 10 8 8 8 8 9 9 8 6 5 4 6 9 7 3 4 4 4 3 1 3 3 4 4 1 1 1 2 3 2 5 7 7 7 7 6 7
5 4 1 2 5 9 8 7 7 8 9 7 7 8 9 8 6 5 5 6 4 2 2 2 2 1 1 2 4 6 7 8 9 4 8 6 8 9 3 7 11 9 9 10 6 4 10 10 11 11 8 6 6 6 8 9 8 7 5 5 5 7 5 4 2 2 3 4 2 5 5 4 5 4 2 0 3 4 2 2 4 6 6 5 5 6 9
6 3 3 5 8 9 8 7 7 7 6 5 6 6 5 5 5 5 5 4 1 1 1 2 3 2 2 4 4 5 6 7 6 6 7 4 3 4 8 12 11 13 14 13 12 12 12 11 10 10 8 7 7 5 6 8 6 5 4 4 6 6 6 4 3 3 2 4 5 4 5 4 3 1 0 2 3 2 1 4 4 5 6 6 6 7 6
4 3 3 4 4 5 6 6 5 4 5 6 4 5 5 5 5 4 1 1 3 5 4 3 2 3 4 5 5 5 5 6 3 4 6 5 7 10 7 11 14 13 13 12 11 11 12 11 12 12 10 9 10 10 10 9 8 9 9 8 8 7 6 4 3 3 5 6 4 4 6 2 3 1 2 3 3 2 3 4 4 4 6 6 6 6 6
4 2 2 2 4 4 4 5 5 4 4 5 5 6 6 7 7 4 3 3 4 3 3 2 2 5 5 5 5 5 4 2 5 7 4 5 11 12 13 14 13 11 11 11 12 12 12 12 12 11 9 9 9 9 8 7 7 7 7 7 5 7 8 7 6 6 7 4 3 4 4 2 1 1 2 3 4 4 4 4 4 4 4 5 6 6 6
0 2 2 3 3 3 4 5 5 6 7 7 7 7 7 7 8 7 3 3 2 3 4 4 5 5 3 3 4 3 2 5 11 10 8 9 13 13 13 14 15 15 14 13 12 11 12 12 12 10 10 10 9 8 7 6 5 7 6 4 4 3 4 7 5 6 4 2 2 2 2 2 2 2 0 2 3 5 6 4 4 4 4 4 5 7 3
0 0 3 6 6 6 5 5 6 7 7 8 7 8 8 7 4 1 4 4 5 4 4 4 4 2 2 2 2 4 7 8 8 8 10 13 13 13 13 12 14 14 13 11 11 10 10 9 9 9 9 10 10 9 8 7 4 6 5 5 5 3 4 5 7 6 3 1 1 2 1 2 3 4 2 2 3 6 5 4 4 3 4 4 5 6 1
6 6 4 4 4 5 6 7 6 6 7 7 8 9 8 4 2 5 5 5 5 5 4 5 5 5 4 4 4 5 6 9 11 11 12 12 12 12 12 13 13 14 14 14 14 12 10 9 6 7 9 9 10 9 9 8 6 5 4 5 2 1 2 1 4 3 2 0 1 1 1 1 3 5 5 4 4 5 5 4 3 2 4 6 5 6 2
7 7 7 7 6 5 4 4 5 6 6 7 8 8 6 6 5 5 7 7 8 7 5 4 5 5 4 4 5 7 10 12 12 12 11 12 12 12 12 13 14 14 16 15 14 12 12 12 11 9 9 10 10 10 10 9 6 6 5 3 2 2 6 6 5 3 2 0 1 2 4 5 4 6 4 4 5 5 4 4 2 1 3 5 6 4 5
8 7 7 7 7 7 7 6 6 6 5 5 7 6 8 9 11 10 10 9 8 8 9 8 7 5 3 5 9 12 14 14 14 14 14 13 12 12 14 14 14 14 13 14 13 11 11 11 13 13 10 10 10 9 9 8 5 5 5 6 2 2 6 4 3 2 1 1 1 2 3 4 4 5 7 6 4 5 5 3 0 1 2 4 4 4 5
9 9 8 7 7 7 8 7 6 5 6 6 7 9 10 12 13 12 12 12 11 9 8 7 6 7 9 10 12 13 14 13 13 13 12 11 12 14 14 14 14 13 13 12 11 10 10 11 13 15 12 9 10 10 11 12 6 4 5 8 9 9 8 4 3 3 5 4 5 5 6 7 8 8 9 8 7 8 7 5 1 0 3 4 3 3 5
10 10 9 8 7 8 8 7 7 7 8 8 10 10 9 11 12 13 12 11 9 6 5 8 11 11 12 13 13 13 13 13 13 13 13 13 12 15 15 13 11 10 11 8 7 8 9 11 14 12 10 10 9 8 10 13 9 7 8 8 9 8 8 8 7 7 8 8 8 9 9 8 7 8 8 8 8 7 7 7 8 4 4 4 3 2 4
10 8 8 8 7 8 9 10 10 9 10 9 9 12 12 13 13 12 10 8 3 1 5 3 8 11 13 13 12 12 13 12 12 12 12 11 12 15 12 11 10 8 6 6 7 8 10 11 9 10 10 10 11 10 12 13 12 9 9 8 9 8 8 8 8 8 8 8 8 8 8 8 7 7 7 8 7 8 8 10 9 9 8 8 7 3 3
8 8 8 6 8 9 10 11 11 11 10 10 11 11 11 13 12 13 13 13 12 9 11 12 13 12 13 14 13 12 11 11 11 11 10 9 10 11 10 12 12 10 9 11 10 9 11 15 12 9 9 9 9 9 9 12 12 10 9 9 9 9 8 9 9 8 8 8 9 8 8 8 7 7 7 8 8 8 8 8 9 8 8 8 9 8 8
8 7 7 7 7 8 9 10 11 11 12 12 11 10 11 12 12 13 13 13 13 15 15 12 12 12 13 13 12 12 11 12 12 11 9 10 11 10 11 10 9 9 10 10 10 10 13 12 11 10 9 9 8 10 8 12 10 9 9 9 9 9 9 9 8 8 8 8 8 8 7 6 7 8 8 8 8 8 7 8 8 7 8 8 8 8 8
9 9 9 8 7 7 7 8 9 12 11 10 10 11 12 13 13 12 11 12 13 13 14 14 15 12 10 8 9 10 11 11 12 13 13 12 9 8 10 8 8 8 11 12 12 12 11 11 11 9 9 8 8 15 13 9 9 9 8 9 8 8 8 8 8 8 8 8 7 7 7 7 7 8 7 7 8 8 8 7 7 8 8 8 8 8 8
7 8 8 7 8 8 7 8 9 10 10 9 9 10 10 11 12 12 13 13 13 12 12 11 12 12 11 11 11 9 7 8 10 11 11 11 11 9 8 6 7 9 12 10 10 9 10 9 10 9 13 12 12 15 13 9 8 8 8 8 9 9 8 8 7 6 7 7 7 7 7 7 8 8 8 8 7 7 7 8 8 8 8 8 8 8 8
6 6 6 7 7 6 7 7 8 9 10 8 7 8 10 10 10 11 11 11 11 10 10 10 10 10 9 9 9 9 8 8 7 6 7 7 9 9 8 6 6 8 12 9 9 9 9 9 9 13 15 16 15 14 9 8 8 8 8 8 8 8 8 8 8 8 8 7 7 7 7 7 7 7 7 7 7 8 8 8 7 8 8 8 8 8 8
6 6 6 7 7 7 8 8 9 9 7 6 8 9 9 9 9 8 9 9 8 8 7 8 8 8 8 7 7 7 7 7 7 6 7 8 9 8 7 6 7 7 9 10 8 8 8 9 13 16 14 15 13 12 8 7 8 8 8 8 8 8 8 8 8 8 8 8 7 7 7 7 7 7 7 7 7 7 8 8 7 8 7 7 8 8 8
6 6 5 6 5 6 6 7 7 6 7 7 8 7 6 6 7 6 7 8 8 6 5 5 7 7 7 8 7 7 8 8 8 9 9 8 7 4 5 7 6 7 10 11 7 8 8 14 16 15 15 13 12 9 7 7 7 8 8 8 8 8 8 7 7 7 7 7 7 7 7 7 7 7 7 7 7 7 7 8 7 7 7 8 8 8 8
6 5 5 4 4 4 5 5 5 5 5 5 6 5 3 4 5 6 5 5 6 6 5 5 6 7 7 8 7 7 6 7 7 6 6 6 6 7 8 8 7 9 9 8 8 9 9 10 12 14 13 13 11 7 7 7 7 7 8 8 7 7 7 7 7 7 7 7 7 7 7 7 7 7 7 7 8 8 7 8 8 8 8 8 8 9 9
5 4 4 5 5 6 6 5 4 5 5 6 5 5 3 3 3 3 3 3 3 3 5 6 6 7 7 8 8 7 6 6 7 7 6 6 5 6 6 6 6 6 8 9 11 12 15 15 15 13 13 11 8 7 8 8 7 7 7 8 8 7 7 7 7 7 7 7 7 6 6 6 7 7 7 7 7 7 8 8 8 8 8 9 9 9 9
4 4 4 3 4 4 5 5 5 5 5 5 5 5 4 5 4 4 4 3 6 8 7 6 6 6 6 6 7 7 7 7 7 5 5 6 6 5 5 7 11 12 8 6 7 7 12 14 13 13 12 9 7 7 7 7 7 7 7 7 7 6 6 6 7 6 6 7 7 7 7 7 7 7 7 7 7 7 7 7 7 8 9 8 8 9 9
5 7 8 8 8 8 7 7 7 6 5 5 6 6 6 7 8 7 7 7 7 6 6 6 6 6 6 6 6 7 7 8 8 8 7 6 6 7 6 6 8 10 9 6 6 6 8 11 10 11 9 7 7 7 7 7 7 7 6 8 7 5 7 7 7 9 8 7 7 6 6 6 6 7 7 6 6 6 7 7 8 10 14 10 8 9 8
6 6 6 7 7 7 7 7 6 6 7 6 5 5 7 7 7 7 7 7 7 8 7 6 7 7 7 7 7 7 8 8 8 7 7 6 7 7 7 7 7 7 6 5 5 5 5 5 6 7 7 7 7 7 6 7 6 7 7 7 7 7 7 7 6 7 7 6 6 7 7 6 7 7 7 7 6 7 7 8 7 6 6 7 8 7 8
4 4 6 6 7 6 5 6 6 6 6 6 7 6 5 7 7 7 8 8 7 6 6 5 6 6 7 7 7 7 6 7 6 6 6 6 6 5 6 7 5 5 6 4 4 6 6 6 7 8 8 6 6 6 7 8 6 6 6 7 7 7 7 7 7 6 6 7 6 6 7 6 6 6 6 6 6 6 6 6 6 6 7 7 7 7 7
Wind_Direction
244 244 252 253 257 257 260 258 262 272 294 342 299 266 257 259 213 245 261 221 235 269 275 286 347 287 264 243 267 265 270 276 276 285 294 290 291 300 310 306 301 303 301 296 290 281 255 149 184 211 229 220 225 212 190 175 165 165 162 161 163 163 162 165 170 164 158 157 157 161 165 166 169 175 173 181 185 176 165 176 185 213 222 216 242 273 308
262 269 289 281 267 273 280 278 275 286 324 300 275 267 266 247 249 245 260 276 248 245 276 316 305 296 360 262 262 288 288 291 317 326 309 317 320 326 331 331 329 324 321 334 344 327 323 338 190 181 173 154 121 136 241 206 175 168 160 164 163 161 163 163 157 155 155 156 161 158 157 164 167 170 178 190 186 183 194 200 221 238 238 246 244 183 125
278 249 247 262 279 279 271 270 278 305 303 285 274 279 289 301 293 290 321 326 297 271 122 308 293 287 244 313 313 285 253 300 331 345 334 330 329 325 320 317 317 317 313 313 328 346 327 22 323 299 229 184 231 145 123 36 330 202 164 162 159 156 156 153 153 153 154 160 157 159 161 155 168 173 192 189 187 196 206 217 223 223 221 220 178 197 233
280 185 257 264 274 279 277 278 304 306 280 280 268 251 236 243 252 273 311 301 284 294 284 279 287 307 351 358 351 356 334 351 1 356 342 330 321 316 314 313 312 311 310 309 301 297 291 219 183 214 240 235 166 142 123 118 109 318 265 161 148 149 148 149 150 153 152 150 149 153 152 167 177 190 188 192 205 202 196 212 240 233 212 184 203 249 254
266 155 305 308 329 348 296 282 232 228 244 245 254 267 252 232 231 267 265 249 243 262 294 332 330 342 337 11 50 32 5 340 354 337 319 307 299 298 302 311 322 323 320 316 313 287 292 276 198 209 204 191 185 156 148 146 136 139 160 139 134 134 146 147 146 144 143 146 149 157 171 179 186 188 189 186 174 169 213 228 241 256 171 126 234 265 283
291 39 15 360 4 282 258 201 184 137 252 246 264 267 252 258 198 218 202 247 299 360 7 24 360 9 343 335 312 7 292 308 312 295 287 296 308 320 325 318 315 312 311 308 304 301 268 254 255 215 194 186 175 161 148 151 148 147 132 143 128 141 143 146 142 139 140 144 158 169 176 178 181 185 179 183 189 190 206 249 180 140 176 298 307 293 275
268 94 87 327 259 253 181 46 326 310 302 341 307 293 309 34 30 7 348 346 30 18 50 34 356 325 312 317 313 312 301 289 274 304 330 318 324 322 321 320 318 317 313 305 299 296 289 264 249 220 209 198 171 162 159 161 162 156 154 143 140 155 153 146 140 137 140 143 154 161 165 172 175 182 173 170 170 199 205 189 132 158 173 351 325 314 304
312 308 140 225 243 272 324 314 299 295 296 62 12 329 329 35 360 346 317 348 5 14 15 8 357 353 324 316 315 319 286 270 23 8 325 327 330 322 321 322 316 313 309 302 296 288 278 259 253 217 200 196 176 174 169 160 156 148 150 142 149 151 152 151 141 137 135 140 146 159 170 170 171 175 175 185 207 212 89 98 82 76 26 47 331 317 304
228 224 177 225 288 293 278 308 337 170 164 50 106 281 287 323 0 39 55 29 19 3 3 359 355 346 340 335 321 349 340 14 351 333 322 315 309 310 312 320 318 315 310 308 305 295 274 243 245 225 208 198 185 174 167 160 153 148 147 143 152 153 148 146 134 131 129 138 152 168 171 163 171 187 194 96 103 122 103 106 98 79 59 334 310 306 302
177 211 263 282 280 263 323 197 59 94 144 139 155 100 296 12 28 44 58 36 8 350 339 347 350 359 0 326 304 325 344 349 342 332 329 328 326 335 335 329 322 314 312 309 298 291 280 257 235 231 211 209 212 182 166 157 152 151 149 149 158 155 148 136 132 130 135 139 155 176 157 157 139 112 129 128 146 140 115 113 87 71 306 330 303 295 299
160 196 224 231 234 254 198 187 195 165 162 142 131 72 283 265 345 37 29 31 325 313 318 324 10 17 336 292 286 301 327 330 325 316 308 306 311 321 321 317 308 309 306 301 296 287 266 253 241 216 172 154 220 192 171 156 152 149 148 149 158 151 142 132 131 132 137 141 131 122 116 132 133 123 124 136 130 93 109 116 139 180 180 269 266 271 268
231 214 219 243 205 263 43 121 136 123 91 86 64 352 283 268 273 254 89 338 307 301 304 331 359 291 280 284 288 303 304 301 298 303 305 318 330 323 316 309 295 290 295 300 305 303 300 284 244 205 177 161 172 185 180 149 142 146 147 153 142 122 118 122 126 132 130 125 123 109 102 94 90 115 133 88 100 125 138 144 162 191 214 235 249 261 266
245 253 278 330 311 60 34 35 156 172 182 75 69 247 241 238 246 256 216 222 245 258 267 189 252 228 218 256 280 289 290 296 301 302 297 299 309 310 307 300 294 288 295 293 295 308 295 335 19 19 112 115 129 166 154 128 120 125 126 119 112 112 111 116 122 124 115 108 105 109 122 133 132 140 163 138 142 138 159 170 167 219 240 240 251 264 263
195 196 189 211 192 171 197 235 324 312 19 13 209 232 210 263 314 334 15 343 305 320 277 217 224 249 254 262 274 285 294 296 294 297 299 303 301 291 289 288 284 291 303 317 322 303 298 319 30 19 30 107 114 100 104 96 116 120 109 106 108 113 125 126 112 105 116 121 123 133 141 139 175 211 222 150 164 158 177 176 198 230 243 259 262 269 274
330 110 212 325 313 243 198 180 53 49 115 226 238 265 314 98 134 328 300 358 299 349 296 275 269 275 284 286 290 293 293 295 299 305 307 302 303 306 306 299 296 300 327 334 335 317 335 324 18 53 33 79 111 122 114 131 129 117 111 112 116 116 115 110 120 128 124 121 127 134 173 175 174 206 225 153 174 167 175 194 208 233 263 272 281 288 289
249 358 334 257 167 303 233 176 206 234 200 231 225 171 290 264 216 179 202 246 245 245 260 275 278 272 278 284 286 289 293 299 305 307 300 297 301 298 292 305 305 313 334 329 321 329 340 324 340 49 80 88 110 111 127 129 118 115 114 113 111 109 114 122 122 119 123 135 148 153 160 162 176 203 239 162 172 180 183 179 201 257 285 302 309 297 294
114 249 280 303 309 311 219 206 240 246 262 243 227 188 207 248 260 212 208 244 246 240 246 260 267 282 271 273 278 285 295 309 309 303 290 280 284 288 291 293 305 316 327 318 316 298 293 295 301 336 122 117 124 125 138 130 122 112 110 111 111 114 105 100 114 121 110 107 115 131 155 159 231 263 267 164 163 198 157 193 208 265 297 311 301 298 298
341 302 239 254 301 324 332 323 303 322 338 344 22 348 325 282 255 246 227 255 260 259 243 267 280 269 278 281 284 292 306 309 302 290 279 278 284 290 294 302 306 318 312 308 305 291 271 221 242 161 122 134 130 140 133 120 114 111 107 105 102 94 102 109 109 107 109 117 123 148 242 193 196 208 175 158 156 199 189 186 136 55 322 309 300 298 298
12 289 6 333 300 305 306 304 355 22 24 352 332 340 315 292 287 288 281 269 269 258 268 266 269 273 271 277 286 307 313 310 301 296 279 276 284 294 304 303 309 305 311 307 299 278 275 253 161 133 134 143 135 139 127 123 115 112 107 101 100 107 116 118 108 118 118 133 151 233 208 174 85 90 118 155 167 170 149 127 93 335 294 301 299 294 302
296 269 299 310 343 353 332 61 2 321 319 303 286 248 243 247 257 268 285 312 303 282 267 258 261 267 275 303 321 318 315 305 304 301 289 287 290 294 297 299 303 298 291 275 264 258 257 232 177 128 140 144 137 134 128 122 113 107 108 107 107 102 100 106 101 122 146 163 149 201 191 120 95 75 177 169 138 157 158 167 153 264 279 287 293 295 316
280 285 285 310 336 316 307 314 311 273 260 268 257 254 257 271 290 306 306 298 282 272 262 256 259 284 294 298 308 316 302 295 296 304 309 296 279 283 307 312 304 290 285 274 230 238 241 182 149 133 149 142 137 132 121 112 106 103 107 114 113 115 117 111 109 119 160 158 191 166 111 108 151 170 150 135 148 189 221 166 161 187 220 254 275 276 297
268 258 280 350 314 299 299 284 276 287 278 261 249 244 246 257 262 268 302 302 289 268 259 259 255 285 289 304 312 295 285 284 288 296 302 299 302 316 316 295 283 288 287 279 173 85 312 138 132 136 140 134 125 115 111 110 113 111 111 117 127 120 123 123 160 178 228 157 159 121 119 119 97 28 351 166 165 157 200 197 190 198 189 201 256 318 333
260 257 271 269 248 261 264 273 281 289 285 270 254 244 247 248 232 221 246 271 275 276 276 266 268 279 253 285 302 286 281 279 292 296 295 302 324 323 303 295 293 294 286 299 88 119 274 178 137 139 135 128 118 111 113 118 119 119 113 117 94 108 129 143 168 183 200 129 119 118 125 148 136 109 112 2 15 161 167 187 192 209 221 238 349 5 330
271 257 260 252 246 267 282 286 290 289 287 276 260 241 238 246 259 244 220 223 240 265 269 259 151 160 289 284 281 275 280 286 299 308 309 312 300 284 280 270 267 272 290 131 134 197 247 146 130 132 122 121 118 120 126 120 120 108 110 101 99 137 157 167 168 154 122 136 111 111 147 183 169 101 107 150 292 282 217 192 208 218 232 22 9 351 338
291 295 296 294 292 284 286 287 291 290 285 282 274 276 285 281 269 267 276 269 246 255 247 217 196 145 195 266 270 275 290 312 307 306 304 295 285 275 270 267 253 218 265 155 135 121 31 119 121 118 115 120 120 120 120 112 102 97 100 110 126 142 126 104 116 103 75 90 119 150 174 196 5 77 107 89 35 321 286 252 239 247 295 354 354 338 337
280 301 285 269 272 273 278 301 296 300 302 312 311 285 274 256 252 268 267 255 256 245 205 187 200 209 168 260 276 291 322 300 301 303 292 284 278 274 264 232 316 85 178 121 96 116 298 95 118 103 106 116 118 122 113 98 99 110 121 132 147 132 116 102 67 63 91 116 139 183 196 173 96 110 130 132 185 252 332 336 327 294 305 306 308 326 327
294 277 308 318 305 294 305 247 256 278 293 289 270 274 272 265 260 254 253 253 264 214 170 167 164 219 243 244 267 314 305 295 299 301 312 356 355 328 296 354 53 174 161 103 112 160 103 96 100 102 105 114 117 118 109 105 114 119 135 140 125 114 99 80 97 112 127 134 132 91 42 39 90 115 149 219 227 336 344 289 277 284 287 299 298 295 318
276 259 144 201 268 278 273 267 266 277 279 277 275 267 267 265 258 258 271 283 279 149 116 120 153 198 303 322 359 317 317 317 317 353 14 13 357 336 327 53 45 46 61 63 60 67 92 101 102 104 107 116 121 113 115 120 126 134 137 139 123 104 113 121 137 120 94 105 79 52 38 55 104 162 189 273 340 334 300 255 268 279 292 280 277 290 319
279 250 212 214 236 246 256 268 275 272 278 298 299 287 278 280 263 250 267 283 160 77 275 171 208 179 49 345 337 329 321 329 352 47 13 312 266 290 55 72 63 61 66 69 70 62 57 61 62 59 41 35 41 58 119 129 133 121 102 87 80 94 101 126 149 121 117 75 39 34 49 102 133 154 52 317 318 357 260 273 283 283 277 291 315 316 319
277 273 289 275 252 265 279 284 287 302 302 288 296 318 322 314 307 261 190 182 164 186 196 181 189 77 29 355 341 315 333 336 343 34 28 354 33 53 49 61 63 57 54 55 52 53 53 53 56 53 41 37 46 49 52 55 72 84 86 90 108 115 130 157 163 129 69 52 24 28 51 102 150 141 40 341 320 286 245 273 282 290 301 302 304 307 316
276 288 219 236 265 274 285 284 285 289 309 331 352 340 334 330 320 327 161 193 214 180 135 142 95 65 22 358 319 327 343 356 54 68 54 47 53 51 52 58 62 58 54 49 47 49 47 43 43 44 40 42 45 46 50 54 62 76 84 95 107 137 133 122 105 86 78 62 17 61 38 13 250 117 22 323 324 314 271 262 300 310 292 294 305 311 314
34 325 322 351 347 344 353 356 358 353 345 349 343 335 318 311 305 293 231 174 127 105 98 80 58 51 4 320 344 354 52 90 82 69 48 56 61 52 52 59 62 60 56 50 45 42 48 46 42 32 35 35 36 33 45 54 54 62 79 116 120 114 117 126 90 83 102 110 47 58 43 13 299 276 63 342 302 285 266 269 289 293 294 300 306 311 311
119 199 25 14 359 1 360 349 1 348 347 332 318 300 292 289 295 348 85 76 90 86 79 67 62 34 37 30 24 57 75 90 91 81 69 60 59 57 53 55 57 58 54 49 48 44 45 50 55 37 31 33 30 30 29 30 46 76 79 84 96 138 133 116 120 121 104 101 54 340 39 346 287 274 271 248 263 270 273 272 266 278 292 292 296 301 300
70 64 58 44 22 360 348 344 353 337 324 316 303 301 287 254 143 101 102 104 98 86 64 52 60 74 75 64 71 75 78 82 75 74 72 71 66 61 57 56 57 55 51 43 41 37 37 31 27 56 37 31 31 28 22 21 14 12 47 60 64 71 98 96 96 117 130 43 272 317 345 358 310 282 285 274 257 269 291 294 270 255 283 298 301 305 316
68 59 46 35 21 5 356 346 342 337 328 326 329 341 19 74 96 93 88 82 81 82 69 51 74 74 50 15 23 67 68 71 67 64 61 60 60 56 55 53 50 50 47 40 33 32 29 31 27 25 25 22 24 26 19 9 5 356 344 354 46 66 84 113 126 159 155 221 326 337 334 331 311 299 283 262 254 265 299 317 287 239 278 301 308 322 332
51 54 47 38 31 25 20 7 349 339 339 346 1 10 50 51 66 68 73 74 68 68 73 77 78 78 38 48 69 69 71 69 69 64 60 56 54 54 53 50 48 48 45 40 26 19 19 23 17 24 26 18 15 14 15 3 349 355 334 331 341 103 120 132 151 173 219 203 280 291 282 290 314 332 352 345 334 321 340 343 352 258 267 281 297 322 326
52 56 55 49 40 36 28 17 6 356 10 31 46 32 38 62 68 66 67 71 69 68 77 79 69 65 73 74 70 67 65 66 67 64 62 58 57 56 53 51 45 45 40 39 10 4 15 13 12 22 24 14 8 2 356 359 357 349 26 46 47 37 27 16 9 13 350 336 336 338 357 17 33 35 33 32 24 17 22 1 330 290 283 289 315 334 334
62 59 58 50 42 36 27 23 20 28 24 42 54 54 48 60 67 74 73 72 69 57 28 64 83 86 83 79 72 69 68 67 68 67 62 57 56 59 50 47 40 38 42 27 356 11 16 5 14 22 20 13 4 354 350 355 12 26 48 42 47 42 45 45 38 34 37 33 32 42 43 37 28 31 32 29 22 20 16 12 356 328 312 325 334 331 332
68 56 49 44 40 35 36 36 35 33 36 37 58 65 62 63 66 68 68 66 62 348 304 18 64 66 68 70 70 68 65 65 63 62 60 57 56 61 58 49 45 41 38 16 20 23 13 12 18 20 17 5 0 2 6 12 26 41 41 45 42 43 40 41 37 37 41 41 41 36 38 33 28 30 34 30 24 19 19 14 11 6 357 346 351 343 336
68 56 47 35 37 32 44 49 43 41 39 39 51 56 58 65 64 65 63 62 53 53 66 70 70 70 70 69 67 62 56 54 54 56 58 58 58 58 55 43 32 25 21 25 26 20 15 18 23 22 14 3 6 7 7 21 33 38 36 37 42 42 41 37 35 35 33 39 38 34 34 34 30 30 34 31 29 25 20 12 13 6 7 11 14 11 7
75 72 55 46 44 45 44 53 52 44 43 44 45 51 54 64 65 63 58 56 54 54 55 56 64 67 70 77 79 78 71 62 57 52 49 52 51 48 50 41 17 18 19 21 19 17 20 23 19 17 8 5 4 15 20 25 33 38 38 34 38 39 39 36 37 34 32 31 34 32 27 23 28 34 31 33 31 26 19 17 14 11 10 11 9 12 14
84 78 72 62 51 44 47 53 60 57 47 43 48 52 54 56 60 63 60 59 56 53 53 52 52 57 59 66 77 78 75 72 67 58 51 51 47 46 50 37 14 20 17 23 18 20 18 16 12 13 7 8 15 20 28 32 33 35 36 34 35 34 38 36 38 36 36 36 35 33 27 25 32 34 29 31 32 25 18 16 15 15 11 11 9 8 12
83 83 81 75 67 61 54 60 63 66 59 47 48 52 55 57 60 59 57 55 55 52 51 48 45 46 51 52 53 58 69 78 79 75 67 57 50 48 55 39 19 23 26 31 28 24 19 12 9 5 10 21 26 21 27 32 33 34 34 34 33 30 29 31 32 32 38 41 36 34 33 29 31 32 30 30 27 22 18 18 17 13 10 8 5 5 9
92 92 95 96 87 79 75 75 75 72 70 56 53 60 62 61 63 65 64 62 57 52 53 49 44 43 43 50 55 56 52 50 54 67 73 66 55 42 35 36 30 26 30 35 33 30 22 13 13 10 17 26 26 27 30 33 35 34 35 34 32 30 29 29 30 30 29 34 37 35 31 32 31 31 32 30 27 27 26 20 16 12 9 5 5 3 3
115 111 108 109 112 109 101 93 85 85 85 88 74 68 68 69 68 69 72 68 65 62 58 55 49 44 37 40 61 73 68 64 60 61 66 55 51 35 13 31 40 42 39 39 40 32 24 19 15 17 23 25 27 27 37 37 41 39 36 33 32 31 29 28 29 31 30 31 32 30 28 29 27 29 34 31 29 32 29 22 18 11 8 8 5 3 1
132 134 140 136 120 116 117 115 115 109 97 86 79 72 76 86 88 83 81 81 79 69 66 66 65 54 49 46 38 48 68 74 71 68 70 78 78 51 35 48 49 61 55 51 45 37 27 20 20 21 21 24 24 27 30 35 45 47 41 34 32 30 29 24 25 30 32 32 30 29 27 24 27 28 25 29 28 29 30 26 23 18 14 10 7 4 360
143 150 151 144 150 151 149 141 135 119 104 87 83 88 88 87 88 89 95 101 102 97 90 80 73 69 63 56 53 49 50 64 65 71 91 91 77 60 42 52 66 68 66 60 55 44 34 23 21 21 22 22 26 30 29 32 39 48 47 45 36 33 28 25 23 27 32 31 30 31 29 27 29 29 26 27 27 26 23 23 25 22 17 15 12 6 5
122 114 121 137 149 162 165 161 145 121 110 115 126 131 131 116 112 130 147 143 122 97 81 74 78 80 77 69 58 56 58 75 77 52 42 55 64 70 49 32 42 107 104 72 63 51 41 28 20 18 23 25 27 28 30 29 32 37 44 44 40 33 31 29 27 27 31 33 30 31 31 31 27 27 26 27 24 23 21 23 24 22 22 20 16 12 8
106 116 116 106 98 91 73 65 63 72 92 108 98 88 87 80 67 39 14 41 75 75 67 62 59 57 67 78 80 68 58 55 74 85 59 59 50 52 56 46 34 37 54 69 63 56 43 34 23 17 19 29 32 30 29 27 27 33 39 41 40 33 25 31 33 28 31 33 27 26 30 32 27 24 22 22 22 21 20 23 26 27 22 19 16 11 10
63 63 59 57 54 54 62 64 57 53 48 59 77 80 69 62 49 30 33 40 44 56 67 68 63 56 54 58 66 68 64 59 54 50 45 42 45 41 39 46 50 51 54 54 56 58 52 40 28 24 18 23 31 36 28 26 26 30 35 38 33 28 21 22 39 39 35 32 27 23 22 24 23 22 19 16 14 15 17 22 27 26 24 22 17 10 3
90 90 95 89 79 74 70 74 70 62 58 52 50 68 81 82 80 59 48 44 47 42 26 33 50 49 51 46 46 55 69 68 58 49 47 40 39 39 37 41 50 49 39 41 55 62 59 49 36 26 24 26 27 29 31 28 26 28 34 39 34 31 26 16 18 35 32 28 29 28 25 22 23 25 25 19 17 16 18 20 18 17 17 19 16 10 3
95 92 89 90 99 97 92 80 74 63 59 60 60 57 77 89 81 64 51 42 49 40 33 30 41 33 46 52 54 58 66 70 71 62 50 44 40 39 33 39 45 47 35 26 46 71 64 53 45 40 37 33 28 29 34 31 26 28 35 40 38 34 26 22 23 32 35 31 29 25 25 23 21 22 24 19 13 17 16 12 11 14 17 18 19 14 360